Tracking 29487 objects as of 10-Sep-2024
HD Live streaming from Space Station
objects crossing your sky now

THOR ABLESTAR DEB

Track THOR ABLESTAR DEB now!
10-day predictions


NORAD ID: 121
Int'l Code: 1961-015F
Perigee: 838.4 km
Apogee: 963.4 km
Inclination: 66.7 °
Period: 102.9 minutes
Semi major axis: 7271 km
RCS: 0.26 m2 (medium)
Launch date: June 29, 1961
Source: United States (US)
Launch site: AIR FORCE EASTERN TEST RANGE (AFETR)

Note: This is SATELLITE DEBRIS
Your satellite tracking list
Your tracking list is empty




NASA's NSSDC Master Catalog

Two Line Element Set (TLE):
1   121U 61015F   24254.28959158  .00000443  00000-0  34339-3 0  9997
2   121  66.7470 204.4118 0085996  96.2998 264.7889 14.00007802236070
Source of the keplerian elements: AFSPC